Moffett NAS, CA

1:47 PM PDT on May 21, 2018 (GMT -0700)
Moffett Federal Air Field

Weather History for KNUQ - April, 2014

Change the Weather History Date:

Tuesday, April 1, 2014

  Actual Average Record
Temperature  
Mean Temperature 53 °F 57 °F  
Max Temperature 60 °F 67 °F 83 °F (2000)
Min Temperature 45 °F 48 °F 36 °F (1951)
Degree Days  
Heating Degree Days 12    
Month to date heating degree days 12  
Since 1 July heating degree days 1624  
Cooling Degree Days 0    
Month to date cooling degree days 0  
Year to date cooling degree days 4  
Moisture  
Dew Point 43 °F    
Average Humidity 74    
Maximum Humidity 92    
Minimum Humidity 55    
Precipitation  
Precipitation 0.36 in 0.04 in 0.71 in (1968)
Month to date precipitation 0.36 0.04  
Year to date precipitation 4.68 8.12  
Since 1 July precipitation 5.94  
Sea Level Pressure  
Sea Level Pressure 29.92 in    
Wind  
Wind Speed 8 mph (SSE)    
Max Wind Speed 20 mph    
Max Gust Speed 24 mph    
Visibility 10 miles    
Events Rain    
T = Trace of Precipitation, MM = Missing Value Source: NWS Daily Summary

Daily Weather History Graph

Daily Weather History Graph

Search for Another Location

Airport or City:

Astronomy

Apr. 01, 2014 Rise Set
Actual Time 6:53 AM PDT 7:31 PM PDT
Civil Twilight 6:27 AM PDT 7:57 PM PDT
Nautical Twilight 5:56 AM PDT 8:28 PM PDT
Astronomical Twilight 5:24 AM PDT 9:00 PM PDT
Moon 8:02 AM PDT (4/1) 9:56 PM PDT (4/1)
Length of Visible Light 13h 30m
Length of Day
12h 37m
Waxing Crescent, 5% of the Moon is Illuminated
Apr 1
Waxing Crescent
Apr 7
First Quarter
Apr 15
Full
Apr 22
Last Quarter
Apr 28
New

Hourly Weather History & Observations

Time (PDT) Temp. Windchill Dew Point Humidity Pressure Visibility Wind Dir Wind Speed Gust Speed Precip Events Conditions
12:56 AM 45.0 °F 39.7 °F 41.0 °F 86% 29.94 in 10.0 mi SSE 10.4 mph - N/A   Partly Cloudy
1:56 AM 45.0 °F 43.5 °F 42.1 °F 90% 29.96 in 4.0 mi Variable 3.5 mph - 0.09 in Rain Rain
2:13 AM 44.6 °F 40.7 °F 42.8 °F 93% 29.95 in 10.0 mi ESE 6.9 mph - 0.00 in   Overcast
2:56 AM 46.0 °F 43.1 °F 43.0 °F 89% 29.95 in 10.0 mi SSE 5.8 mph - 0.01 in Rain Light Rain
3:56 AM 45.0 °F 41.8 °F 42.1 °F 90% 29.94 in 10.0 mi SE 5.8 mph - 0.01 in   Partly Cloudy
4:56 AM 45.0 °F 41.8 °F 42.1 °F 90% 29.94 in 10.0 mi SE 5.8 mph - N/A   Clear
5:56 AM 45.0 °F 41.8 °F 42.1 °F 90% 29.94 in 10.0 mi SE 5.8 mph - N/A   Clear
6:56 AM 45.0 °F 40.6 °F 42.1 °F 90% 29.94 in 10.0 mi SE 8.1 mph - N/A   Partly Cloudy
7:56 AM 46.9 °F - 43.0 °F 86% 29.96 in 10.0 mi SE 8.1 mph - 0.01 in   Overcast
8:56 AM 48.0 °F - 44.1 °F 86% 29.96 in 10.0 mi ESE 11.5 mph - 0.01 in   Overcast
9:56 AM 52.0 °F - 45.0 °F 77% 29.97 in 10.0 mi ESE 11.5 mph - 0.00 in   Partly Cloudy
10:56 AM 55.9 °F - 44.1 °F 64% 29.96 in 10.0 mi SSE 10.4 mph - N/A   Scattered Clouds
11:56 AM 57.0 °F - 42.1 °F 57% 29.95 in 10.0 mi South 11.5 mph 19.6 mph N/A   Mostly Cloudy
12:56 PM 55.9 °F - 43.0 °F 62% 29.95 in 10.0 mi SSE 11.5 mph 16.1 mph 0.01 in   Scattered Clouds
1:56 PM 55.9 °F - 42.1 °F 60% 29.92 in 10.0 mi SSE 13.8 mph 24.2 mph N/A   Overcast
2:56 PM 57.9 °F - 41.0 °F 53% 29.89 in 10.0 mi SSE 10.4 mph 16.1 mph N/A   Mostly Cloudy
3:56 PM 57.0 °F - 41.0 °F 55% 29.87 in 10.0 mi SSE 13.8 mph 23.0 mph N/A   Mostly Cloudy
4:56 PM 53.1 °F - 44.1 °F 71% 29.87 in 10.0 mi SSW 8.1 mph - 0.04 in   Overcast
5:56 PM 50.0 °F - 43.0 °F 77% 29.88 in 5.0 mi SW 5.8 mph - 0.12 in Rain Rain
6:56 PM 48.0 °F - 42.1 °F 80% 29.88 in 10.0 mi SSE 4.6 mph - 0.05 in   Overcast
7:56 PM 46.9 °F - 43.0 °F 86% 29.88 in 10.0 mi SE 8.1 mph - N/A   Scattered Clouds
8:56 PM 46.9 °F - 42.1 °F 83% 29.88 in 10.0 mi SE 6.9 mph - 0.00 in Rain Light Rain
9:56 PM 46.9 °F - 43.0 °F 86% 29.89 in 10.0 mi SE 5.8 mph - 0.01 in   Scattered Clouds
10:56 PM 46.9 °F - 42.1 °F 83% 29.89 in 10.0 mi SE 6.9 mph - N/A   Scattered Clouds
11:56 PM 46.0 °F 43.1 °F 42.1 °F 86% 29.90 in 10.0 mi SE 5.8 mph - N/A   Partly Cloudy